TimeMST,TemperatureF,Dew PointF,Humidity,Sea Level PressureIn,VisibilityMPH,Wind Direction,Wind SpeedMPH,Gust SpeedMPH,PrecipitationIn,Events,Conditions,WindDirDegrees,DateUTC
12:53 AM,30.0,27.0,88,30.30,10.0,SW,6.9,-,N/A,,Partly Cloudy,220,2012-11-15 07:53:00
1:53 AM,30.0,26.1,85,30.32,10.0,WSW,6.9,-,N/A,,Overcast,250,2012-11-15 08:53:00
2:53 AM,27.0,25.0,92,30.36,10.0,SW,5.8,-,N/A,,Mostly Cloudy,230,2012-11-15 09:53:00
3:53 AM,27.0,23.0,85,30.38,10.0,SW,6.9,-,N/A,,Partly Cloudy,220,2012-11-15 10:53:00
5:53 AM,26.1,21.9,84,30.44,10.0,SW,6.9,-,N/A,,Clear,230,2012-11-15 12:53:00
6:53 AM,26.1,21.9,84,30.47,10.0,WSW,5.8,-,N/A,,Clear,240,2012-11-15 13:53:00
7:53 AM,32.0,27.0,82,30.48,10.0,Calm,Calm,-,N/A,,Clear,0,2012-11-15 14:53:00
8:53 AM,36.0,28.0,73,30.49,10.0,West,3.5,-,N/A,,Clear,260,2012-11-15 15:53:00
9:53 AM,39.9,28.9,65,30.49,10.0,Calm,Calm,-,N/A,,Clear,0,2012-11-15 16:53:00
10:53 AM,43.0,30.0,60,30.47,10.0,Calm,Calm,-,N/A,,Clear,0,2012-11-15 17:53:00
11:53 AM,45.0,28.9,53,30.44,10.0,ESE,3.5,-,N/A,,Clear,110,2012-11-15 18:53:00
12:53 PM,48.0,28.9,48,30.42,10.0,SE,3.5,-,N/A,,Clear,140,2012-11-15 19:53:00
1:53 PM,48.9,28.0,44,30.39,10.0,Calm,Calm,-,N/A,,Clear,0,2012-11-15 20:53:00
2:53 PM,50.0,28.9,44,30.39,10.0,East,6.9,-,N/A,,Clear,80,2012-11-15 21:53:00
3:53 PM,48.0,30.0,50,30.39,10.0,ENE,6.9,-,N/A,,Clear,70,2012-11-15 22:53:00
4:53 PM,37.9,28.0,68,30.41,10.0,SSE,9.2,-,N/A,,Clear,150,2012-11-15 23:53:00
5:53 PM,37.0,27.0,67,30.42,10.0,SSE,12.7,-,N/A,,Clear,150,2012-11-16 00:53:00
6:53 PM,37.0,26.1,65,30.42,10.0,SSE,10.4,-,N/A,,Clear,150,2012-11-16 01:53:00
7:53 PM,35.1,26.1,70,30.40,10.0,SSE,6.9,-,N/A,,Clear,160,2012-11-16 02:53:00
8:53 PM,39.0,26.1,60,30.38,10.0,Variable,5.8,-,N/A,,Clear,0,2012-11-16 03:53:00
9:53 PM,39.9,26.1,58,30.35,10.0,WSW,11.5,-,N/A,,Clear,240,2012-11-16 04:53:00
10:53 PM,41.0,28.0,60,30.31,10.0,SSW,15.0,-,N/A,,Clear,200,2012-11-16 05:53:00
11:53 PM,42.1,26.1,53,30.28,10.0,South,26.5,31.1,N/A,,Clear,190,2012-11-16 06:53:00